Year,Month,Day,Hour,Minute,Value (Times are PST for temperature in C)
2012,11,22,00,00,-2.30
2012,11,22,00,01,-2.30
2012,11,22,00,02,-2.30
2012,11,22,00,03,-2.30
2012,11,22,00,04,-2.30
2012,11,22,00,05,-2.20
2012,11,22,00,06,-2.20
2012,11,22,00,07,-2.20
2012,11,22,00,08,-2.20
2012,11,22,00,09,-2.20
2012,11,22,00,10,-2.20
2012,11,22,00,11,-2.20
2012,11,22,00,12,-2.20
2012,11,22,00,13,-2.30
2012,11,22,00,14,-2.30
2012,11,22,00,15,-2.30
2012,11,22,00,16,-2.30
2012,11,22,00,17,-2.30
2012,11,22,00,18,-2.30
2012,11,22,00,19,-2.30
2012,11,22,00,20,-2.30
2012,11,22,00,21,-2.30
2012,11,22,00,22,-2.30
2012,11,22,00,23,-2.30
2012,11,22,00,24,-2.30
2012,11,22,00,25,-2.30
2012,11,22,00,26,-2.30
2012,11,22,00,27,-2.30
2012,11,22,00,28,-2.20
2012,11,22,00,29,-2.20
2012,11,22,00,30,-2.20
2012,11,22,00,31,-2.20
2012,11,22,00,32,-2.20
2012,11,22,00,33,-2.20
2012,11,22,00,34,-2.20
2012,11,22,00,35,-2.20
2012,11,22,00,36,-2.20
2012,11,22,00,37,-2.20
2012,11,22,00,38,-2.20
2012,11,22,00,39,-2.20
2012,11,22,00,40,-2.20
2012,11,22,00,41,-2.20
2012,11,22,00,42,-2.20
2012,11,22,00,43,-2.20
2012,11,22,00,44,-2.20
2012,11,22,00,45,-2.20
2012,11,22,00,46,-2.20
2012,11,22,00,47,-2.20
2012,11,22,00,48,-2.20
2012,11,22,00,49,-2.20
2012,11,22,00,50,-2.20
2012,11,22,00,51,-2.20
2012,11,22,00,52,-2.20
2012,11,22,00,53,-2.20
2012,11,22,00,54,-2.20
2012,11,22,00,55,-2.20
2012,11,22,00,56,-2.20
2012,11,22,00,57,-2.20
2012,11,22,00,58,-2.20
2012,11,22,00,59,-2.20
2012,11,22,01,00,-2.20
2012,11,22,01,01,-2.20
2012,11,22,01,02,-2.20
2012,11,22,01,03,-2.20
2012,11,22,01,04,-2.20
2012,11,22,01,05,-2.20
2012,11,22,01,06,-2.20
2012,11,22,01,07,-2.20
2012,11,22,01,08,-2.20
2012,11,22,01,09,-2.20
2012,11,22,01,10,-2.20
2012,11,22,01,11,-2.20
2012,11,22,01,12,-2.20
2012,11,22,01,13,-2.10
2012,11,22,01,14,-2.10
2012,11,22,01,15,-2.10
2012,11,22,01,16,-2.10
2012,11,22,01,17,-2.10
2012,11,22,01,18,-2.10
2012,11,22,01,19,-2.10
2012,11,22,01,20,-2.10
2012,11,22,01,21,-2.10
2012,11,22,01,22,-2.00
2012,11,22,01,23,-2.00
2012,11,22,01,24,-2.00
2012,11,22,01,25,-2.00
2012,11,22,01,26,-2.00
2012,11,22,01,27,-2.00
2012,11,22,01,28,-2.00
2012,11,22,01,29,-2.00
2012,11,22,01,30,-2.00
2012,11,22,01,31,-2.00
2012,11,22,01,32,-2.00
2012,11,22,01,33,-2.00
2012,11,22,01,34,-2.00
2012,11,22,01,35,-2.00
2012,11,22,01,36,-2.00
2012,11,22,01,37,-2.00
2012,11,22,01,38,-2.10
2012,11,22,01,39,-2.10
2012,11,22,01,40,-2.10
2012,11,22,01,41,-2.10
2012,11,22,01,42,-2.10
2012,11,22,01,43,-2.10
2012,11,22,01,44,-2.10
2012,11,22,01,45,-2.10
2012,11,22,01,46,-2.10
2012,11,22,01,47,-2.10
2012,11,22,01,48,-2.10
2012,11,22,01,49,-2.10
2012,11,22,01,50,-2.10
2012,11,22,01,51,-2.10
2012,11,22,01,52,-2.10
2012,11,22,01,53,-2.10
2012,11,22,01,54,-2.10
2012,11,22,01,55,-2.10
2012,11,22,01,56,-2.10
2012,11,22,01,57,-2.10
2012,11,22,01,58,-2.10
2012,11,22,01,59,-2.10
2012,11,22,02,00,-2.10
2012,11,22,02,01,-2.10
2012,11,22,02,02,-2.10
2012,11,22,02,03,-2.10
2012,11,22,02,04,-2.10
2012,11,22,02,05,-2.10
2012,11,22,02,06,-2.10
2012,11,22,02,07,-2.00
2012,11,22,02,08,-2.00
2012,11,22,02,09,-2.00
2012,11,22,02,10,-2.00
2012,11,22,02,11,-2.10
2012,11,22,02,12,-2.10
2012,11,22,02,13,-2.10
2012,11,22,02,14,-2.10
2012,11,22,02,15,-2.10
2012,11,22,02,16,-2.10
2012,11,22,02,17,-2.10
2012,11,22,02,18,-2.10
2012,11,22,02,19,-2.10
2012,11,22,02,20,-2.10
2012,11,22,02,21,-2.10
2012,11,22,02,22,-2.10
2012,11,22,02,23,-2.10
2012,11,22,02,24,-2.10
2012,11,22,02,25,-2.10
2012,11,22,02,26,-2.10
2012,11,22,02,27,-2.10
2012,11,22,02,28,-2.10
2012,11,22,02,29,-2.10
2012,11,22,02,30,-2.10
2012,11,22,02,31,-2.10
2012,11,22,02,32,-2.10
2012,11,22,02,33,-2.10
2012,11,22,02,34,-2.10
2012,11,22,02,35,-2.10
2012,11,22,02,36,-2.10
2012,11,22,02,37,-2.20
2012,11,22,02,38,-2.20
2012,11,22,02,39,-2.20
2012,11,22,02,40,-2.20
2012,11,22,02,41,-2.20
2012,11,22,02,42,-2.20
2012,11,22,02,43,-2.20
2012,11,22,02,44,-2.20
2012,11,22,02,45,-2.20
2012,11,22,02,46,-2.20
2012,11,22,02,47,-2.20
2012,11,22,02,48,-2.20
2012,11,22,02,49,-2.20
2012,11,22,02,50,-2.30
2012,11,22,02,51,-2.30
2012,11,22,02,52,-2.30
2012,11,22,02,53,-2.30
2012,11,22,02,54,-2.30
2012,11,22,02,55,-2.20
2012,11,22,02,56,-2.20
2012,11,22,02,57,-2.20
2012,11,22,02,58,-2.20
2012,11,22,02,59,-2.10
2012,11,22,03,00,-2.10
2012,11,22,03,01,-2.10
2012,11,22,03,02,-2.10
2012,11,22,03,03,-2.10
2012,11,22,03,04,-2.00
2012,11,22,03,05,-2.00
2012,11,22,03,06,-2.00
2012,11,22,03,07,-2.00
2012,11,22,03,08,-2.10
2012,11,22,03,09,-2.00
2012,11,22,03,10,-2.10
2012,11,22,03,11,-2.10
2012,11,22,03,12,-2.10
2012,11,22,03,13,-2.10
2012,11,22,03,14,-2.10
2012,11,22,03,15,-2.10
2012,11,22,03,16,-2.10
2012,11,22,03,17,-2.20
2012,11,22,03,18,-2.10
2012,11,22,03,19,-2.20
2012,11,22,03,20,-2.20
2012,11,22,03,21,-2.20
2012,11,22,03,22,-2.20
2012,11,22,03,23,-2.20
2012,11,22,03,24,-2.20
2012,11,22,03,25,-2.20
2012,11,22,03,26,-2.20
2012,11,22,03,27,-2.20
2012,11,22,03,28,-2.20
2012,11,22,03,29,-2.20
2012,11,22,03,30,-2.10
2012,11,22,03,31,-2.10
2012,11,22,03,32,-2.10
2012,11,22,03,33,-2.10
2012,11,22,03,34,-2.10
2012,11,22,03,35,-2.10
2012,11,22,03,36,-2.10
2012,11,22,03,37,-2.10
2012,11,22,03,38,-2.10
2012,11,22,03,39,-2.10
2012,11,22,03,40,-2.10
2012,11,22,03,41,-2.20
2012,11,22,03,42,-2.20
2012,11,22,03,43,-2.20
2012,11,22,03,44,-2.20
2012,11,22,03,45,-2.20
2012,11,22,03,46,-2.20
2012,11,22,03,47,-2.20
2012,11,22,03,48,-2.20
2012,11,22,03,49,-2.20
2012,11,22,03,50,-2.30
2012,11,22,03,51,-2.30
2012,11,22,03,52,-2.30
2012,11,22,03,53,-2.30
2012,11,22,03,54,-2.30
2012,11,22,03,55,-2.30
2012,11,22,03,56,-2.30
2012,11,22,03,57,-2.30
2012,11,22,03,58,-2.30
2012,11,22,03,59,-2.30
2012,11,22,04,00,-2.30
2012,11,22,04,01,-2.30
2012,11,22,04,02,-2.30
2012,11,22,04,03,-2.30
2012,11,22,04,04,-2.30
2012,11,22,04,05,-2.30
2012,11,22,04,06,-2.30
2012,11,22,04,07,-2.40
2012,11,22,04,08,-2.40
2012,11,22,04,09,-2.40
2012,11,22,04,10,-2.40
2012,11,22,04,11,-2.40
2012,11,22,04,12,-2.40
2012,11,22,04,13,-2.40
2012,11,22,04,14,-2.40
2012,11,22,04,15,-2.40
2012,11,22,04,16,-2.40
2012,11,22,04,17,-2.40
2012,11,22,04,18,-2.40
2012,11,22,04,19,-2.40
2012,11,22,04,20,-2.40
2012,11,22,04,21,-2.40
2012,11,22,04,22,-2.40
2012,11,22,04,23,-2.40
2012,11,22,04,24,-2.40
2012,11,22,04,25,-2.40
2012,11,22,04,26,-2.40
2012,11,22,04,27,-2.40
2012,11,22,04,28,-2.40
2012,11,22,04,29,-2.40
2012,11,22,04,30,-2.40
2012,11,22,04,31,-2.40
2012,11,22,04,32,-2.50
2012,11,22,04,33,-2.50
2012,11,22,04,34,-2.40
2012,11,22,04,35,-2.40
2012,11,22,04,36,-2.40
2012,11,22,04,37,-2.40
2012,11,22,04,38,-2.40
2012,11,22,04,39,-2.40
2012,11,22,04,40,-2.40
2012,11,22,04,41,-2.40
2012,11,22,04,42,-2.40
2012,11,22,04,43,-2.40
2012,11,22,04,44,-2.40
2012,11,22,04,45,-2.40
2012,11,22,04,46,-2.40
2012,11,22,04,47,-2.30
2012,11,22,04,48,-2.30
2012,11,22,04,49,-2.30
2012,11,22,04,50,-2.30
2012,11,22,04,51,-2.30
2012,11,22,04,52,-2.30
2012,11,22,04,53,-2.30
2012,11,22,04,54,-2.30
2012,11,22,04,55,-2.30
2012,11,22,04,56,-2.30
2012,11,22,04,57,-2.30
2012,11,22,04,58,-2.30
2012,11,22,04,59,-2.30
2012,11,22,05,00,-2.20
2012,11,22,05,01,-2.20
2012,11,22,05,02,-2.20
2012,11,22,05,03,-2.20
2012,11,22,05,04,-2.20
2012,11,22,05,05,-2.20
2012,11,22,05,06,-2.20
2012,11,22,05,07,-2.20
2012,11,22,05,08,-2.20
2012,11,22,05,09,-2.20
2012,11,22,05,10,-2.20
2012,11,22,05,11,-2.20
2012,11,22,05,12,-2.20
2012,11,22,05,13,-2.20
2012,11,22,05,14,-2.20
2012,11,22,05,15,-2.20
2012,11,22,05,16,-2.20
2012,11,22,05,17,-2.20
2012,11,22,05,18,-2.20
2012,11,22,05,19,-2.20
2012,11,22,05,20,-2.20
2012,11,22,05,21,-2.20
2012,11,22,05,22,-2.20
2012,11,22,05,23,-2.30
2012,11,22,05,24,-2.30
2012,11,22,05,25,-2.20
2012,11,22,05,26,-2.30
2012,11,22,05,27,-2.30
2012,11,22,05,28,-2.30
2012,11,22,05,29,-2.30
2012,11,22,05,30,-2.30
2012,11,22,05,31,-2.30
2012,11,22,05,32,-2.30
2012,11,22,05,33,-2.30
2012,11,22,05,34,-2.30
2012,11,22,05,35,-2.30
2012,11,22,05,36,-2.30
2012,11,22,05,37,-2.30
2012,11,22,05,38,-2.30
2012,11,22,05,39,-2.30
2012,11,22,05,40,-2.30
2012,11,22,05,41,-2.30
2012,11,22,05,42,-2.30
2012,11,22,05,43,-2.30
2012,11,22,05,44,-2.30
2012,11,22,05,45,-2.30
2012,11,22,05,46,-2.30
2012,11,22,05,47,-2.30
2012,11,22,05,48,-2.20
2012,11,22,05,49,-2.20
2012,11,22,05,50,-2.20
2012,11,22,05,51,-2.20
2012,11,22,05,52,-2.20
2012,11,22,05,53,-2.20
2012,11,22,05,54,-2.20
2012,11,22,05,55,-2.20
2012,11,22,05,56,-2.20
2012,11,22,05,57,-2.20
2012,11,22,05,58,-2.20
2012,11,22,05,59,-2.20
2012,11,22,06,00,-2.20
2012,11,22,06,01,-2.20
2012,11,22,06,02,-2.20
2012,11,22,06,03,-2.20
2012,11,22,06,04,-2.20
2012,11,22,06,05,-2.20
2012,11,22,06,06,-2.20
2012,11,22,06,07,-2.20
2012,11,22,06,08,-2.20
2012,11,22,06,09,-2.20
2012,11,22,06,10,-2.20
2012,11,22,06,11,-2.20
2012,11,22,06,12,-2.20
2012,11,22,06,13,-2.20
2012,11,22,06,14,-2.20
2012,11,22,06,15,-2.20
2012,11,22,06,16,-2.20
2012,11,22,06,17,-2.20
2012,11,22,06,18,-2.20
2012,11,22,06,19,-2.20
2012,11,22,06,20,-2.20
2012,11,22,06,21,-2.20
2012,11,22,06,22,-2.20
2012,11,22,06,23,-2.20
2012,11,22,06,24,-2.20
2012,11,22,06,25,-2.20
2012,11,22,06,26,-2.20
2012,11,22,06,27,-2.20
2012,11,22,06,28,-2.20
2012,11,22,06,29,-2.20
2012,11,22,06,30,-2.20
2012,11,22,06,31,-2.20
2012,11,22,06,32,-2.20
2012,11,22,06,33,-2.20
2012,11,22,06,34,-2.20
2012,11,22,06,35,-2.20
2012,11,22,06,36,-2.20
2012,11,22,06,37,-2.20
2012,11,22,06,38,-2.20
2012,11,22,06,39,-2.20
2012,11,22,06,40,-2.20
2012,11,22,06,41,-2.20
2012,11,22,06,42,-2.20
2012,11,22,06,43,-2.20
2012,11,22,06,44,-2.20
2012,11,22,06,45,-2.20
2012,11,22,06,46,-2.20
2012,11,22,06,47,-2.20
2012,11,22,06,48,-2.20
2012,11,22,06,49,-2.20
2012,11,22,06,50,-2.30
2012,11,22,06,51,-2.30
2012,11,22,06,52,-2.30
2012,11,22,06,53,-2.30
2012,11,22,06,54,-2.30
2012,11,22,06,55,-2.30
2012,11,22,06,56,-2.20
2012,11,22,06,57,-2.20
2012,11,22,06,58,-2.20
2012,11,22,06,59,-2.20
2012,11,22,07,00,-2.20
2012,11,22,07,01,-2.20
2012,11,22,07,02,-2.20
2012,11,22,07,03,-2.30
2012,11,22,07,04,-2.30
2012,11,22,07,05,-2.30
2012,11,22,07,06,-2.30
2012,11,22,07,07,-2.30
2012,11,22,07,08,-2.30
2012,11,22,07,09,-2.30
2012,11,22,07,10,-2.30
2012,11,22,07,11,-2.30
2012,11,22,07,12,-2.30
2012,11,22,07,13,-2.30
2012,11,22,07,14,-2.30
2012,11,22,07,15,-2.30
2012,11,22,07,16,-2.30
2012,11,22,07,17,-2.30
2012,11,22,07,18,-2.30
2012,11,22,07,19,-2.30
2012,11,22,07,20,-2.30
2012,11,22,07,21,-2.30
2012,11,22,07,22,-2.30
2012,11,22,07,23,-2.30
2012,11,22,07,24,-2.30
2012,11,22,07,25,-2.30
2012,11,22,07,26,-2.30
2012,11,22,07,27,-2.30
2012,11,22,07,28,-2.30
2012,11,22,07,29,-2.30
2012,11,22,07,30,-2.30
2012,11,22,07,31,-2.30
2012,11,22,07,32,-2.40
2012,11,22,07,33,-2.40
2012,11,22,07,34,-2.40
2012,11,22,07,35,-2.40
2012,11,22,07,36,-2.40
2012,11,22,07,37,-2.40
2012,11,22,07,38,-2.40
2012,11,22,07,39,-2.40
2012,11,22,07,40,-2.40
2012,11,22,07,41,-2.40
2012,11,22,07,42,-2.50
2012,11,22,07,43,-2.50
2012,11,22,07,44,-2.50
2012,11,22,07,45,-2.50
2012,11,22,07,46,-2.50
2012,11,22,07,47,-2.60
2012,11,22,07,48,-2.60
2012,11,22,07,49,-2.60
2012,11,22,07,50,-2.60
2012,11,22,07,51,-2.60
2012,11,22,07,52,-2.70
2012,11,22,07,53,-2.70
2012,11,22,07,54,-2.70
2012,11,22,07,55,-2.70
2012,11,22,07,56,-2.80
2012,11,22,07,57,-2.80
2012,11,22,07,58,-2.80
2012,11,22,07,59,-2.90
2012,11,22,08,00,-2.90
2012,11,22,08,01,-2.90
2012,11,22,08,02,-3.00
2012,11,22,08,03,-3.00
2012,11,22,08,04,-3.00
2012,11,22,08,05,-3.10
2012,11,22,08,06,-3.10
2012,11,22,08,07,-3.20
2012,11,22,08,08,-3.20
2012,11,22,08,09,-3.30
2012,11,22,08,10,-3.30
2012,11,22,08,11,-3.40
2012,11,22,08,12,-3.40
2012,11,22,08,13,-3.50
2012,11,22,08,14,-3.50
2012,11,22,08,15,-3.50
2012,11,22,08,16,-3.60
2012,11,22,08,17,-3.70
2012,11,22,08,18,-3.70
2012,11,22,08,19,-3.70
2012,11,22,08,20,-3.80
2012,11,22,08,21,-3.90
2012,11,22,08,22,-3.90
2012,11,22,08,23,-4.00
2012,11,22,08,24,-4.00
2012,11,22,08,25,-4.10
2012,11,22,08,26,-4.10
2012,11,22,08,27,-4.10
2012,11,22,08,28,-4.20
2012,11,22,08,29,-4.30
2012,11,22,08,30,-4.30
2012,11,22,08,31,-4.30
2012,11,22,08,32,-4.30
2012,11,22,08,33,-4.40
2012,11,22,08,34,-4.40
2012,11,22,08,35,-4.40
2012,11,22,08,36,-4.40
2012,11,22,08,37,-4.40
2012,11,22,08,38,-4.50
2012,11,22,08,39,-4.50
2012,11,22,08,40,-4.50
2012,11,22,08,41,-4.50
2012,11,22,08,42,-4.50
2012,11,22,08,43,-4.60
2012,11,22,08,44,-4.60
2012,11,22,08,45,-4.70
2012,11,22,08,46,-4.80
2012,11,22,08,47,-4.90
2012,11,22,08,48,-4.90
2012,11,22,08,49,-5.00
2012,11,22,08,50,-5.10
2012,11,22,08,51,-5.20
2012,11,22,08,52,-5.20
2012,11,22,08,53,-5.30
2012,11,22,08,54,-5.40
2012,11,22,08,55,-5.40
2012,11,22,08,56,-5.50
2012,11,22,08,57,-5.50
2012,11,22,08,58,-5.60
2012,11,22,08,59,-5.60
2012,11,22,09,00,-5.60
2012,11,22,09,01,-5.70
2012,11,22,09,02,-5.70
2012,11,22,09,03,-5.70
2012,11,22,09,04,-5.70
2012,11,22,09,05,-5.70
2012,11,22,09,06,-5.80
2012,11,22,09,07,-5.90
2012,11,22,09,08,-5.90
2012,11,22,09,09,-6.00
2012,11,22,09,10,-6.10
2012,11,22,09,11,-6.20
2012,11,22,09,12,-6.30
2012,11,22,09,13,-6.40
2012,11,22,09,14,-6.50
2012,11,22,09,15,-6.60
2012,11,22,09,16,-6.60
2012,11,22,09,17,-6.70
2012,11,22,09,18,-6.70
2012,11,22,09,19,-6.70
2012,11,22,09,20,-6.70
2012,11,22,09,21,-6.80
2012,11,22,09,22,-6.70
2012,11,22,09,23,-6.70
2012,11,22,09,24,-6.70
2012,11,22,09,25,-6.70
2012,11,22,09,26,-6.70
2012,11,22,09,27,-6.70
2012,11,22,09,28,-6.70
2012,11,22,09,29,-6.70
2012,11,22,09,30,-6.80
2012,11,22,09,31,-6.80
2012,11,22,09,32,-6.80
2012,11,22,09,33,-6.80
2012,11,22,09,34,-6.80
2012,11,22,09,35,-6.80
2012,11,22,09,36,-6.90
2012,11,22,09,37,-6.90
2012,11,22,09,38,-7.00
2012,11,22,09,39,-7.10
2012,11,22,09,40,-7.20
2012,11,22,09,41,-7.20
2012,11,22,09,42,-7.30
2012,11,22,09,43,-7.40
2012,11,22,09,44,-7.50
2012,11,22,09,45,-7.60
2012,11,22,09,46,-7.70
2012,11,22,09,47,-7.70
2012,11,22,09,48,-7.80
2012,11,22,09,49,-7.80
2012,11,22,09,50,-7.80
2012,11,22,09,51,-7.80
2012,11,22,09,52,-7.80
2012,11,22,09,53,-7.80
2012,11,22,09,54,-7.70
2012,11,22,09,55,-7.70
2012,11,22,09,56,-7.60
2012,11,22,09,57,-7.60
2012,11,22,09,58,-7.60
2012,11,22,09,59,-7.50
2012,11,22,10,00,-7.50
2012,11,22,10,01,-7.50
2012,11,22,10,02,-7.50
2012,11,22,10,03,-7.50
2012,11,22,10,04,-7.40
2012,11,22,10,05,-7.40
2012,11,22,10,06,-7.40
2012,11,22,10,07,-7.30
2012,11,22,10,08,-7.30
2012,11,22,10,09,-7.30
2012,11,22,10,10,-7.40
2012,11,22,10,11,-7.40
2012,11,22,10,12,-7.40
2012,11,22,10,13,-7.40
2012,11,22,10,14,-7.40
2012,11,22,10,15,-7.40
2012,11,22,10,16,-7.40
2012,11,22,10,17,-7.40
2012,11,22,10,18,-7.50
2012,11,22,10,19,-7.50
2012,11,22,10,20,-7.50
2012,11,22,10,21,-7.50
2012,11,22,10,22,-7.60
2012,11,22,10,23,-7.60
2012,11,22,10,24,-7.70
2012,11,22,10,25,-7.70
2012,11,22,10,26,-7.70
2012,11,22,10,27,-7.80
2012,11,22,10,28,-7.80
2012,11,22,10,29,-7.90
2012,11,22,10,30,-7.90
2012,11,22,10,31,-8.00
2012,11,22,10,32,-8.00
2012,11,22,10,33,-8.10
2012,11,22,10,34,-8.10
2012,11,22,10,35,-8.10
2012,11,22,10,36,-8.20
2012,11,22,10,37,-8.20
2012,11,22,10,38,-8.30
2012,11,22,10,39,-8.40
2012,11,22,10,40,-8.40
2012,11,22,10,41,-8.40
2012,11,22,10,42,-8.50
2012,11,22,10,43,-8.50
2012,11,22,10,44,-8.50
2012,11,22,10,45,-8.60
2012,11,22,10,46,-8.60
2012,11,22,10,47,-8.60
2012,11,22,10,48,-8.60
2012,11,22,10,49,-8.70
2012,11,22,10,50,-8.80
2012,11,22,10,51,-8.80
2012,11,22,10,52,-8.80
2012,11,22,10,53,-8.90
2012,11,22,10,54,-8.90
2012,11,22,10,55,-8.90
2012,11,22,10,56,-9.00
2012,11,22,10,57,-9.00
2012,11,22,10,58,-9.00
2012,11,22,10,59,-9.00
2012,11,22,11,00,-9.00
2012,11,22,11,01,-9.10
2012,11,22,11,02,-9.10
2012,11,22,11,03,-9.10
2012,11,22,11,04,-9.10
2012,11,22,11,05,-9.10
2012,11,22,11,06,-9.20
2012,11,22,11,07,-9.10
2012,11,22,11,08,-9.10
2012,11,22,11,09,-9.00
2012,11,22,11,10,-9.00
2012,11,22,11,11,-8.90
2012,11,22,11,12,-8.90
2012,11,22,11,13,-8.90
2012,11,22,11,14,-8.90
2012,11,22,11,15,-8.80
2012,11,22,11,16,-8.80
2012,11,22,11,17,-8.80
2012,11,22,11,18,-8.80
2012,11,22,11,19,-8.80
2012,11,22,11,20,-8.80
2012,11,22,11,21,-8.80
2012,11,22,11,22,-8.90
2012,11,22,11,23,-8.90
2012,11,22,11,24,-9.00
2012,11,22,11,25,-9.00
2012,11,22,11,26,-9.00
2012,11,22,11,27,-9.10
2012,11,22,11,28,-9.20
2012,11,22,11,29,-9.20
2012,11,22,11,30,-9.30
2012,11,22,11,31,-9.30
2012,11,22,11,32,-9.30
2012,11,22,11,33,-9.40
2012,11,22,11,34,-9.40
2012,11,22,11,35,-9.40
2012,11,22,11,36,-9.40
2012,11,22,11,37,-9.50
2012,11,22,11,38,-9.50
2012,11,22,11,39,-9.50
2012,11,22,11,40,-9.50
2012,11,22,11,41,-9.60
2012,11,22,11,42,-9.60
2012,11,22,11,43,-9.60
2012,11,22,11,44,-9.60
2012,11,22,11,45,-9.60
2012,11,22,11,46,-9.60
2012,11,22,11,47,-9.60
2012,11,22,11,48,-9.60
2012,11,22,11,49,-9.60
2012,11,22,11,50,-9.60
2012,11,22,11,51,-9.60
2012,11,22,11,52,-9.60
2012,11,22,11,53,-9.50
2012,11,22,11,54,-9.50
2012,11,22,11,55,-9.50
2012,11,22,11,56,-9.50
2012,11,22,11,57,-9.50
2012,11,22,11,58,-9.50
2012,11,22,11,59,-9.50
2012,11,22,12,00,-9.50
2012,11,22,12,01,-9.50
2012,11,22,12,02,-9.40
2012,11,22,12,03,-9.40
2012,11,22,12,04,-9.40
2012,11,22,12,05,-9.40
2012,11,22,12,06,-9.40
2012,11,22,12,07,-9.30
2012,11,22,12,08,-9.30
2012,11,22,12,09,-9.30
2012,11,22,12,10,-9.30
2012,11,22,12,11,-9.30
2012,11,22,12,12,-9.30
2012,11,22,12,13,-9.30
2012,11,22,12,14,-9.30
2012,11,22,12,15,-9.30
2012,11,22,12,16,-9.20
2012,11,22,12,17,-9.20
2012,11,22,12,18,-9.20
2012,11,22,12,19,-9.20
2012,11,22,12,20,-9.20
2012,11,22,12,21,-9.20
2012,11,22,12,22,-9.20
2012,11,22,12,23,-9.20
2012,11,22,12,24,-9.20
2012,11,22,12,25,-9.20
2012,11,22,12,26,-9.30
2012,11,22,12,27,-9.30
2012,11,22,12,28,-9.30
2012,11,22,12,29,-9.30
2012,11,22,12,30,-9.30
2012,11,22,12,31,-9.30
2012,11,22,12,32,-9.20
2012,11,22,12,33,-9.20
2012,11,22,12,34,-9.20
2012,11,22,12,35,-9.10
2012,11,22,12,36,-9.20
2012,11,22,12,37,-9.20
2012,11,22,12,38,-9.20
2012,11,22,12,39,-9.30
2012,11,22,12,40,-9.30
2012,11,22,12,41,-9.40
2012,11,22,12,42,-9.40
2012,11,22,12,43,-9.50
2012,11,22,12,44,-9.50
2012,11,22,12,45,-9.60
2012,11,22,12,46,-9.60
2012,11,22,12,47,-9.60
2012,11,22,12,48,-9.60
2012,11,22,12,49,-9.70
2012,11,22,12,50,-9.70
2012,11,22,12,51,-9.70
2012,11,22,12,52,-9.70
2012,11,22,12,53,-9.80
2012,11,22,12,54,-9.80
2012,11,22,12,55,-9.80
2012,11,22,12,56,-9.80
2012,11,22,12,57,-9.80
2012,11,22,12,58,-9.80
2012,11,22,12,59,-9.80
2012,11,22,13,00,-9.80
2012,11,22,13,01,-9.80
2012,11,22,13,02,-9.80
2012,11,22,13,03,-9.80
2012,11,22,13,04,-9.80
2012,11,22,13,05,-9.80
2012,11,22,13,06,-9.80
2012,11,22,13,07,-9.80
2012,11,22,13,08,-9.80
2012,11,22,13,09,-9.80
2012,11,22,13,10,-9.80
2012,11,22,13,11,-9.80
2012,11,22,13,12,-9.80
2012,11,22,13,13,-9.80
2012,11,22,13,14,-9.80
2012,11,22,13,15,-9.80
2012,11,22,13,16,-9.80
2012,11,22,13,17,-9.80
2012,11,22,13,18,-9.80
2012,11,22,13,19,-9.80
2012,11,22,13,20,-9.80
2012,11,22,13,21,-9.80
2012,11,22,13,22,-9.80
2012,11,22,13,23,-9.80
2012,11,22,13,24,-9.80
2012,11,22,13,25,-9.80
2012,11,22,13,26,-9.80
2012,11,22,13,27,-9.80
2012,11,22,13,28,-9.80
2012,11,22,13,29,-9.80
2012,11,22,13,30,-9.80
2012,11,22,13,31,-9.80
2012,11,22,13,32,-9.70
2012,11,22,13,33,-9.70
2012,11,22,13,34,-9.70
2012,11,22,13,35,-9.70
2012,11,22,13,36,-9.70
2012,11,22,13,37,-9.70
2012,11,22,13,38,-9.80
2012,11,22,13,39,-9.80
2012,11,22,13,40,-9.70
2012,11,22,13,41,-9.70
2012,11,22,13,42,-9.70
2012,11,22,13,43,-9.70
2012,11,22,13,44,-9.70
2012,11,22,13,45,-9.70
2012,11,22,13,46,-9.70
2012,11,22,13,47,-9.60
2012,11,22,13,48,-9.60
2012,11,22,13,49,-9.60
2012,11,22,13,50,-9.50
2012,11,22,13,51,-9.50
2012,11,22,13,52,-9.50
2012,11,22,13,53,-9.40
2012,11,22,13,54,-9.40
2012,11,22,13,55,-9.40
2012,11,22,13,56,-9.30
2012,11,22,13,57,-9.30
2012,11,22,13,58,-9.20
2012,11,22,13,59,-9.20
2012,11,22,14,00,-9.10
2012,11,22,14,01,-9.10
2012,11,22,14,02,-9.10
2012,11,22,14,03,-9.10
2012,11,22,14,04,-9.00
2012,11,22,14,05,-9.00
2012,11,22,14,06,-9.00
2012,11,22,14,07,-9.00
2012,11,22,14,08,-9.00
2012,11,22,14,09,-8.90
2012,11,22,14,10,-8.90
2012,11,22,14,11,-8.90
2012,11,22,14,12,-8.90
2012,11,22,14,13,-8.90
2012,11,22,14,14,-8.90
2012,11,22,14,15,-8.90
2012,11,22,14,16,-9.00
2012,11,22,14,17,-9.00
2012,11,22,14,18,-9.00
2012,11,22,14,19,-9.00
2012,11,22,14,20,-9.10
2012,11,22,14,21,-9.10
2012,11,22,14,22,-9.10
2012,11,22,14,23,-9.10
2012,11,22,14,24,-9.20
2012,11,22,14,25,-9.30
2012,11,22,14,26,-9.30
2012,11,22,14,27,-9.40
2012,11,22,14,28,-9.50
2012,11,22,14,29,-9.50
2012,11,22,14,30,-9.60
2012,11,22,14,31,-9.60
2012,11,22,14,32,-9.70
2012,11,22,14,33,-9.70
2012,11,22,14,34,-9.70
2012,11,22,14,35,-9.80
2012,11,22,14,36,-9.80
2012,11,22,14,37,-9.80
2012,11,22,14,38,-9.80
2012,11,22,14,39,-9.80
2012,11,22,14,40,-9.80
2012,11,22,14,41,-9.90
2012,11,22,14,42,-9.90
2012,11,22,14,43,-9.90
2012,11,22,14,44,-9.90
2012,11,22,14,45,-9.90
2012,11,22,14,46,-9.90
2012,11,22,14,47,-9.90
2012,11,22,14,48,-9.90
2012,11,22,14,49,-9.90
2012,11,22,14,50,-10.00
2012,11,22,14,51,-10.00
2012,11,22,14,52,-10.00
2012,11,22,14,53,-10.00
2012,11,22,14,54,-10.00
2012,11,22,14,55,-10.00
2012,11,22,14,56,-10.10
2012,11,22,14,57,-10.10
2012,11,22,14,58,-10.20
2012,11,22,14,59,-10.20
2012,11,22,15,00,-10.20
2012,11,22,15,01,-10.20
2012,11,22,15,02,-10.30
2012,11,22,15,03,-10.30
2012,11,22,15,04,-10.30
2012,11,22,15,05,-10.40
2012,11,22,15,06,-10.40
2012,11,22,15,07,-10.40
2012,11,22,15,08,-10.50
2012,11,22,15,09,-10.50
2012,11,22,15,10,-10.50
2012,11,22,15,11,-10.60
2012,11,22,15,12,-10.60
2012,11,22,15,13,-10.60
2012,11,22,15,14,-10.60
2012,11,22,15,15,-10.70
2012,11,22,15,16,-10.70
2012,11,22,15,17,-10.70
2012,11,22,15,18,-10.80
2012,11,22,15,19,-10.80
2012,11,22,15,20,-10.80
2012,11,22,15,21,-10.90
2012,11,22,15,22,-10.90
2012,11,22,15,23,-10.90
2012,11,22,15,24,-10.90
2012,11,22,15,25,-10.90
2012,11,22,15,26,-10.90
2012,11,22,15,27,-10.90
2012,11,22,15,28,-10.90
2012,11,22,15,29,-11.00
2012,11,22,15,30,-11.00
2012,11,22,15,31,-11.00
2012,11,22,15,32,-11.00
2012,11,22,15,33,-11.00
2012,11,22,15,34,-11.00
2012,11,22,15,35,-11.00
2012,11,22,15,36,-11.00
2012,11,22,15,37,-11.00
2012,11,22,15,38,-11.00
2012,11,22,15,39,-11.10
2012,11,22,15,40,-11.10
2012,11,22,15,41,-11.10
2012,11,22,15,42,-11.20
2012,11,22,15,43,-11.20
2012,11,22,15,44,-11.30
2012,11,22,15,45,-11.30
2012,11,22,15,46,-11.30
2012,11,22,15,47,-11.30
2012,11,22,15,48,-11.40
2012,11,22,15,49,-11.40
2012,11,22,15,50,-11.40
2012,11,22,15,51,-11.50
2012,11,22,15,52,-11.50
2012,11,22,15,53,-11.60
2012,11,22,15,54,-11.60
2012,11,22,15,55,-11.70
2012,11,22,15,56,-11.80
2012,11,22,15,57,-11.80
2012,11,22,15,58,-11.80
2012,11,22,15,59,-11.90
2012,11,22,16,00,-11.90
2012,11,22,16,01,-12.00
2012,11,22,16,02,-12.00
2012,11,22,16,03,-12.10
2012,11,22,16,04,-12.10
2012,11,22,16,05,-12.10
2012,11,22,16,06,-12.10
2012,11,22,16,07,-12.20
2012,11,22,16,08,-12.20
2012,11,22,16,09,-12.20
2012,11,22,16,10,-12.20
2012,11,22,16,11,-12.20
2012,11,22,16,12,-12.20
2012,11,22,16,13,-12.20
2012,11,22,16,14,-12.20
2012,11,22,16,15,-12.20
2012,11,22,16,16,-12.20
2012,11,22,16,17,-12.20
2012,11,22,16,18,-12.20
2012,11,22,16,19,-12.20
2012,11,22,16,20,-12.20
2012,11,22,16,21,-12.20
2012,11,22,16,22,-12.20
2012,11,22,16,23,-12.20
2012,11,22,16,24,-12.20
2012,11,22,16,25,-12.20
2012,11,22,16,26,-12.20
2012,11,22,16,27,-12.20
2012,11,22,16,28,-12.20
2012,11,22,16,29,-12.20
2012,11,22,16,30,-12.20
2012,11,22,16,31,-12.20
2012,11,22,16,32,-12.20
2012,11,22,16,33,-12.20
2012,11,22,16,34,-12.20
2012,11,22,16,35,-12.30
2012,11,22,16,36,-12.40
2012,11,22,16,37,-12.40
2012,11,22,16,38,-12.40
2012,11,22,16,39,-12.50
2012,11,22,16,40,-12.50
2012,11,22,16,41,-12.50
2012,11,22,16,42,-12.50
2012,11,22,16,43,-12.50
2012,11,22,16,44,-12.50
2012,11,22,16,45,-12.50
2012,11,22,16,46,-12.60
2012,11,22,16,47,-12.60
2012,11,22,16,48,-12.60
2012,11,22,16,49,-12.60
2012,11,22,16,50,-12.60
2012,11,22,16,51,-12.70
2012,11,22,16,52,-12.70
2012,11,22,16,53,-12.70
2012,11,22,16,54,-12.70
2012,11,22,16,55,-12.70
2012,11,22,16,56,-12.70
2012,11,22,16,57,-12.70
2012,11,22,16,58,-12.70
2012,11,22,16,59,-12.70
2012,11,22,17,00,-12.70
2012,11,22,17,01,-12.70
2012,11,22,17,02,-12.70
2012,11,22,17,03,-12.70
2012,11,22,17,04,-12.70
2012,11,22,17,05,-12.70
2012,11,22,17,06,-12.70
2012,11,22,17,07,-12.70
2012,11,22,17,08,-12.70
2012,11,22,17,09,-12.80
2012,11,22,17,10,-12.80
2012,11,22,17,11,-12.80
2012,11,22,17,12,-12.80
2012,11,22,17,13,-12.80